Tracking 19212 objects as of 18-Jul-2018
HD Live streaming from Space Station
objects crossing your sky now

COSMOS 192

Track COSMOS 192 now!
10-day predictions
COSMOS 192 is classified as:


NORAD ID: 3047
Int'l Code: 1967-116A
Perigee: 707.9 km
Apogee: 721.4 km
Inclination: 74.0 °
Period: 98.9 minutes
Semi major axis: 7085 km
RCS: 3.2027 m2 (large)
Launch date: November 23, 1967
Source: Commonwealth of Independent States (former USSR) (CIS)
Launch site: PLESETSK MISSILE AND SPACE COMPLEX (PKMTR)
aabbcc
Your satellite tracking list
Your tracking list is empty




NASA's NSSDC Master Catalog

Two Line Element Set (TLE):
1 03047U 67116A   18198.19515509  .00000027  00000-0  12798-4 0  9997
2 03047  74.0127 108.0718 0009564 264.7298  95.2774 14.55574739678133
Source of the keplerian elements: AFSPC